STARLINK-5754, 55579

Orbit data source: Space-Track

STARLINK-5754, 55579 is a payload satellite owned by SpaceX/Seattle (US) in LEO that was launched on Sun, 12 Feb 2023 UTC via an FALCON 9 launch vehicle from the Air Force Eastern Test Range (AFETR). Payload-class satellites include a variety of spacecraft equipped with specific instruments for various scientific and technological missions. These include communications satellites like Starlink; space stations such as the ISS; scientific satellites like the Hubble; Earth observation satellites from companies like Planet Labs, Umbra, and HawkEye 360; GPS; miniature CubeSats for education and research; and military/defense satellites.

Loading next visibility...
Identifier
55579, 2023-020L
Orbit
LEO
Country
Flag of USUS
Related business
Manufacturer
SpaceX/Seattle
Mission
Operational spacecraft
Bus & Motor
STARLINK, Unknown motor
Mass
305 kg wet, ~290 kg dry
Launch date (UTC)
2023-02-12 (3 years ago)
Launch vehicle
FALCON 9
Launch site
Air Force Eastern Test Range (AFETR)
Object type
Payload
Rocket body
Debris
Shape & HBR
Unknown shape, 10.1 m
Radar Cross Section
Large (>1 m²)

Expand to show TLE details & history
Last TLE update: 13 hours ago

TLE from 13 hours ago
0 STARLINK-5754
1 55579U 23020L   25345.09731782 -.00000838  00000-0 -46990-4 0  9997
2 55579  43.0033 125.9467 0001427 276.6124  83.4556 15.02533403155594
Epoch: 2025-12-11T02:20Z
TLE epoch observation values (Epoch: 2025-12-11T02:20:08.259Z)
Latitude
-0.00002°
Longitude
10.85408°
Altitude
558.753 km
Speed
7.584 km/s
True Right ascension
08h 23m 47s
True Declination
0° 00' 00"
Sunlit
Object was in full shadow at epoch
Visualization orbit readout
Latitude
Unknown
Longitude
Unknown
Altitude
Unknown
Speed
Unknown
Apparent Right ascension
Unknown
Apparent Declination
Unknown
Sunlit
N/A
Visualization observer readout
Local Sidereal Time
13:56:46
Azimuth
Unknown
Elevation
Unknown
Doppler factor
Unknown
Orbital elements
Apogee altitude
562.001 km
Perigee altitude
560.021 km
Semi-major axis
6,939.148 km
Eccentricity
0.00014
Inclination
43.0033°
RAAN
125.9467°
Arg. of periapsis
276.6124°
True anomaly
83.47185°
Mean anomaly
83.4556°
Eccentric anomaly
83.46372°
Mean motion
3.75478 °/min
Orbital period
95.88 mins
BSTAR
-0.00004699
Loading maneuver chart data...
Computing Atmospheric mass density...
Loading historical data...
Loading historical data...
Loading historical data...
Loading historical data...
Loading historical data...
Loading historical data...
Loading historical data...

Documentation

Showing up to 5 results
|